Regional Weather Roundup
Issued by NWS

Home | Current Version | Previous Version | Graphics & Text | Print | Product List | Glossary On
Versions: 1 2 3 4 5 6 7 8 9 10 11 12 13 14 15 16 17 18 19 20 21 22 23 24 25 26 27 28 29 30 31 32 33 34 35 36 37 38 39 40 41 42 43 44 45 46 47 48 49 50
000
ASUS45 KSLC 051110
RWRUT

UTAH REGIONAL WEATHER ROUNDUP
NATIONAL WEATHER SERVICE SALT LAKE CITY UT
400 AM MST FRI FEB 05 2016

UTZ001>011-023>025-051200-

NORTHERN UTAH

CITY           SKY/WX    TMP DP  RH WIND       PRES   REMARKS
BRIGHAM CITY   CLOUDY    26  24  90 CALM      30.52R
HILL AFB       CLOUDY    26  23  90 S8        30.48S WCI  17
LOGAN          CLOUDY    23  22  96 SW3       30.50S FOG
OGDEN          CLOUDY    26  25  96 S5        30.49R FOG     WCI  20
PROVO AIRPORT  MOCLDY    19  18  93 CALM      30.51S
SALT LAKE CITY LGT SNOW  27  24  89 SE7       30.50S FOG     WCI  19
VERNAL         CLOUDY    11   6  81 SW3       30.45R
WENDOVER       CLOUDY    21  18  86 E3        30.50R
HEBER CITY     CLOUDY    19  19 100 CALM      30.44S FOG
WEST JORDAN    CLOUDY    25  25 100 S5        30.50S WCI  19

$$

UTZ012>022-026-027-051200-

SOUTHERN/CENTRAL UTAH

CITY           SKY/WX    TMP DP  RH WIND       PRES   REMARKS
BLANDING       CLEAR      8   6  91 N3        30.44S
BRYCE CANYON   PTCLDY     5   2  87 W9        30.38S WCI  -9
CEDAR CITY     PTCLDY     7   4  87 NE7       30.45R WCI  -5
DELTA          CLOUDY    14  13  95 CALM      30.51S
HANKSVILLE     CLOUDY     9   5  85 CALM      30.53R
MILFORD        CLOUDY     0  -4  83 SW8       30.49F FOG     WCI -14
MOAB/CYNLANDS  CLOUDY    15  13  91 N6        30.49R WCI   6
PRICE          CLEAR      5   1  83 CALM      30.39R
ST GEORGE      MOSUNNY   32  21  64 CALM      30.49S
KANAB          CLEAR     30  21  69 NW10      30.46R WCI  21

$$

REGIONAL REPORTS     COLORADO/ARIZONA

CITY           SKY/WX    TMP DP  RH WIND       PRES   REMARKS
CRAIG, CO      LGT SNOW  14  11  87 CALM      30.36R FOG
GRAND JUNCTION CLOUDY    15  14  95 E3        30.47S FOG
RIFLE          LGT SNOW  15  11  83 S3        30.43R FOG
MONTROSE       CLOUDY    11   7  84 CALM      30.45R
CORTEZ         CLOUDY     3  -2  79 VRB7      30.36R WCI  -9
PAGE, AZ       CLEAR     25  19  78 CALM      30.44S
GRAND CANYON   PTCLDY     8   4  83 CALM      30.38
KINGMAN        CLEAR     32  20  61 E12       30.39S WCI  23
FLAGSTAFF      CLEAR     22  12  65 E6        30.33S WCI  14

$$

REGIONAL REPORTS    NEVADA/IDAHO/WYOMING

CITY           SKY/WX    TMP DP  RH WIND       PRES   REMARKS
LAS VEGAS, NV  PTCLDY    42  24  49 E9        30.41S
ELY            PTCLDY     2  -1  88 S14       30.47S WCI -16
ELKO           CLOUDY    19  15  84 W3        30.52S
POCATELLO, ID  CLOUDY    21  18  88 NE6       30.50R WCI  13
BURLEY         CLOUDY    32  28  85 SW3       30.48R
EVANSTON, WY   CLOUDY    16  13  88 W12       30.38S WCI   3
ROCK SPRINGS   CLOUDY    13   8  81 W16       30.32R WCI  -3

$$



USA.gov is the U.S. government's official web portal to all federal, state and local government web resources and services.